Cape Girardeau Regional Airport Cape Girardeau US
ICAO: KCGI
IATA: CGI
Category: Medium
Scheduled Services: Yes

Elevation: 342 ft
TransAlt. 18000 ft.

Airport Communications:
ASOS:120.55
MEMPHIS CNTR:133.65
CTAF:119
GND:121.6
ST LOUIS RDO:122.4
TWR:119
UNICOM:122.95

KCGI Zoom In..

If you have problems with the map follow the link
https://www.worldairports.se/pages/airport.php?
ICAO=KCGI

Runways:

(A) RW 02 length 3997 ft width 100 ft
---- / hdg 23

(B) RW 10 length 6500 ft width 150 ft
ILS 109.50 / hdg 108

(C) RW 20 length 3997 ft width 100 ft
---- / hdg 203

(D) RW 28 length 6500 ft width 150 ft
---- / hdg 288

Location; KCGI
Day. 17 / Time. 02.53 Zulu
* Altimeter: 30.13
* Temperature: 01° c. 33.8°f.
* Wind from: 100° Speed 03 kn.
Dewpoint: -01° c.
Visibility: 9 Statute Miles.
Clouds: Clear (automated report).

KCGI 170253Z AUTO 10003KT 9SM CLR 01/M01 A3013 RMK AO2 SLP206 T00061011 51006


Wind From 100°
Speed 03 kn.

 
 
jpsmedia.com for Web Design worldairports.se 2018   terms of use